Hourly Data Report for July 10, 2021

TORONTO CITY
ONTARIO
Current Station Operator: ECCC - MSC

43°40'00.000" N
79°24'00.000" W
112.50 m
6158355
71508
XTO

Download Data

Hourly Data (July 2021)
Hourly Data Report for July 10, 2021
TIME
LST
Temp Definition
°C
Dew Point Definition
°C
Rel Hum Definition
%
Precip. Amount Definition
mm

Wind Dir Definition
10's deg

Wind Spd Definition
km/h
Visibility Definition
km
Stn Press Definition
kPa
Hmdx Definition


Wind Chill Definition


Weather Definition


00:00 17.0 14.2 83 0.0       100.38     LegendNANA
01:00 17.1 13.8 81 0.0       100.40     LegendNANA
02:00 17.0 13.3 79 0.0       100.36     LegendNANA
03:00 16.0 13.1 83 0.0       100.35     LegendNANA
04:00 15.0 12.5 85 0.0       100.41     LegendNANA
05:00 15.3 12.8 85 0.0       100.45     LegendNANA
06:00 15.2 12.8 86 0.0       100.40     LegendNANA
07:00 17.5 12.8 74 0.0       100.41     LegendNANA
08:00 19.6 12.6 64 0.0       100.53     LegendNANA
09:00 21.4 14.1 63 0.0       100.56 25   LegendNANA
10:00 22.0 13.4 58 0.0       100.59 25   LegendNANA
11:00 22.4 12.4 53 0.0       100.54 25   LegendNANA
12:00 22.7 13.7 57 0.0       100.55 26   LegendNANA
13:00 22.9 13.8 56 0.0       100.58 26   LegendNANA
14:00 23.4 13.7 54 0.0       100.49 27   LegendNANA
15:00 23.9 12.2 48 0.0       100.45 26   LegendNANA
16:00 23.6 12.8 51 0.0       100.38 26   LegendNANA
17:00 22.8 11.2 48 0.0       100.39 25   LegendNANA
18:00 22.6 9.8 44 0.0       100.36     LegendNANA
19:00 22.2 10.1 46 0.0       100.38     LegendNANA
20:00 20.1 10.1 53 0.0       100.37     LegendNANA
21:00 18.8 12.4 66 0.0       100.38     LegendNANA
22:00 18.6 12.8 69 0.0       100.42     LegendNANA
23:00 19.5 13.6 69 0.0       100.42     LegendNANA

Notes on Data Quality.

Legend

  • E = Estimated
  • M = Missing
  • NA = Not Available*
  • [empty] = Indicates an unobserved value
Date modified: